SCP
0 0 0 0 0 0 0 0 0 0 0 0 0 0 0 0 0 0 0 0 0 0 0 0 0 0 0 0 0 0 0 0 0 0 0 0 0 0 0 0 0 0 0 0
0 0 0 0 0 0 0 0 0 0 0 0 0 0 0 0 0 0 0 0 0 0 0 0 0 0 0 0 0 0 0 0 0 0 0 0 0 0 0 0 0 0 0 0
0 0 0 0 0 0 0 0 0 0 0 0 0 0 0 0 0 0 0 0 0 0 0 0 0 0 0 0 0 0 0 0 0 0 0 0 0 0 0 0 0 0 0 0
0 0 0 0 0 0 0 0 0 0 0 0 0 0 0 0 0 0 0 0 0 0 0 0 0 0 0 0 0 0 0 0 0 0 0 0 0 0 0 0 0 0 0 0
0 0 0 0 0 0 0 0 0 0 0 0 0 0 0 0 0 0 0 0 0 0 0 0 0 0 0 0 0 0 0 0 0 0 0 0 0 0 0 0 0 0 0 0
0 0 0 0 0 0 0 0 0 0 0 0 0 0 0 0 0 0 0 0 0 0 0 0 0 0 0 0 0 0 0 0 0 0 0 0 0 0 0 0 0 0 0 0
0 0 0 0 0 0 0 0 0 0 0 0 0 0 0 0 0 0 0 0 0 0 0 0 0 0 0 0 0 0 0 0 0 0 0 0 0 0 0 0 0 0 0 0
0 0 0 0 0 0 0 0 0 0 0 0 0 0 0 0 0 0 0 0 0 0 0 0 0 0 0 0 0 0 0 0 0 0 0 0 0 0 0 0 0 0 0 0
0 0 0 0 0 0 0 0 0 0 0 0 0 0 0 0 0 0 0 0 0 0 0 0 0 0 0 0 0 0 0 0 0 0 0 0 0 0 0 0 0 0 0 0
0 0 0 0 0 0 0 0 0 0 0 0 0 0 0 0 0 0 0 0 0 0 0 0 0 0 0 0 0 0 0 0 0 0 0 0 0 0 0 0 0 0 0 0
0 0 0 0 0 0 0 0 0 0 0 0 0 0 0 0 0 0 0 0 0 0 0 0 0 0 0 0 0 0 0 0 0 0 0 0 0 0 0 0 0 0 0 0
0 0 0 0 0 0 0 0 0 0 0 0 0 0 0 0 0 0 0 0 0 0 0 0 0 0 0 0 0 0 0 0 0 0 0 0 0 0 0 0 0 0 0 0
0 0 0 0 0 0 0 0 0 0 0 0 0 0 0 0 0 0 0 0 0 0 0 0 0 0 0 0 0 0 0 0 0 0 0 0 0 0 0 0 0 0 0 0
0 0 0 0 0 0 0 0 0 0 0 0 0 0 0 0 0 0 0 0 0 0 0 0 0 0 0 0 0 0 0 0 0 0 0 0 0 0 0 0 0 0 0 0
0 0 0 0 0 0 0 0 0 0 0 0 0 0 0 0 0 0 0 0 0 0 0 0 0 0 0 0 0 0 0 0 0 0 0 0 0 0 0 0 0 0 0 0
0 0 0 0 0 0 0 0 0 0 0 0 0 0 0 0 0 0 0 0 0 0 0 0 0 0 0 0 0 0 0 0 0 0 0 0 0 0 0 0 0 0 0 0
0 0 0 0 0 0 0 0 0 0 0 0 0 0 0 0 0 0 0 0 0 0 0 0 0 0 0 0 0 0 0 0 0 0 0 0 0 0 0 0 0 0 0 0
0 0 0 0 0 0 0 0 0 0 0 0 0 0 0 0 0 0 0 0 0 0 0 0 0 0 0 0 0 0 0 0 0 0 0 0 0 0 0 0 0 0 0 0
0 0 0 0 0 0 0 0 0 0 0 0 0 0 0 0 0 0 0 0 0 0 0 0 0 0 0 0 0 0 0 0 0 0 0 0 0 0 0 0 0 0 0 0
0 0 0 0 0 0 0 0 0 0 0 0 0 0 0 0 0 0 0 0 0 0 0 0 0 0 0 0 0 0 0 0 0 0 0 0 0 0 0 0 0 0 0 0
0 0 0 0 0 0 0 0 0 0 0 0 0 0 0 0 0 0 0 0 0 0 0 0 0 0 0 0 0 0 0 0 0 0 0 0 0 0 0 0 0 0 0 0
0 0 0 0 0 0 0 0 0 0 0 0 0 0 0 0 0 0 0 0 0 0 0 0 0 0 0 0 0 0 0 0 0 0 0 0 0 0 0 0 0 0 0 0
0 0 0 0 0 0 0 0 0 0 0 0 0 0 0 0 0 0 0 0 0 0 0 0 0 0 0 0 0 0 0 0 0 0 0 0 0 0 0 0 0 0 0 0
0 0 0 0 0 0 0 0 0 0 0 0 0 0 0 0 0 0 0 0 0 0 0 0 0 0 0 0 0 0 0 0 0 0 0 0 0 0 0 0 0 0 0 0
0 0 0 0 0 0 0 0 0 0 0 0 0 0 0 0 0 0 0 0 0 0 0 0 0 0 0 0 0 0 0 0 0 0 0 0 0 0 0 0 0 0 0 0
0 0 0 0 0 0 0 0 0 0 0 0 0 0 0 0 0 0 0 0 0 0 0 0 0 0 0 0 0 0 0 0 0 0 0 0 0 0 0 0 0 0 0 0
0 0 0 0 0 0 0 0 0 0 0 0 0 0 0 0 0 0 0 0 0 0 0 0 0 0 0 0 0 0 0 0 0 0 0 0 0 0 0 0 0 0 0 0
Wind_Speed
9 6 6 7 8 8 8 8 8 7 5 2 2 2 2 2 2 2 2 2 3 3 3 4 4 3 3 3 2 2 2 2 1 1 2 2 2 2 2 2 1 1 1 1
11 9 8 10 10 9 9 9 9 8 5 2 2 2 2 2 1 1 1 2 2 3 3 3 4 3 3 3 3 2 2 2 1 1 1 1 1 1 1 2 1 1 1 1
9 8 9 10 7 7 7 6 6 6 3 2 2 2 2 2 1 0 0 0 1 2 3 3 3 3 3 2 2 2 2 2 2 1 1 1 1 0 1 1 1 1 2 1
7 8 10 3 1 2 4 4 4 4 1 1 1 2 2 2 2 1 0 0 1 1 2 2 2 2 3 3 3 2 2 2 2 2 2 1 1 1 1 1 1 2 2 2
6 8 8 4 1 2 3 4 3 3 2 1 1 1 1 1 2 2 2 1 1 1 1 2 2 2 2 3 2 2 2 3 3 2 2 2 1 1 1 1 1 1 1 2
6 7 6 1 2 3 3 2 3 4 3 3 2 2 1 2 3 2 2 2 2 1 1 0 1 2 2 2 2 2 2 2 3 3 3 2 2 1 1 1 1 2 2 2
9 9 5 1 2 1 2 1 4 4 3 2 1 1 1 2 3 3 3 2 2 2 1 1 1 2 2 2 1 1 2 2 2 2 3 2 2 1 1 1 2 2 2 2
7 8 4 2 1 0 2 4 4 4 4 3 2 2 2 2 2 2 2 2 2 1 1 2 1 1 1 1 1 1 1 1 2 2 2 2 2 2 2 2 2 2 2 1
4 2 1 1 1 2 3 4 4 3 4 3 2 1 1 1 1 1 1 1 1 1 1 1 1 1 1 0 1 1 1 2 2 2 1 2 2 2 2 2 2 2 2 2
5 3 1 1 1 2 3 3 3 3 3 3 2 1 1 1 1 1 1 0 0 0 0 1 1 1 1 1 0 0 1 1 1 2 1 1 1 2 2 2 2 2 2 2
7 4 2 2 0 2 3 3 4 3 3 3 2 1 1 1 1 1 1 1 1 1 1 2 1 1 2 2 1 1 2 1 1 1 1 1 0 1 2 2 3 3 3 3
5 3 2 1 0 1 2 2 3 3 3 3 2 2 1 1 1 1 2 1 1 2 2 2 2 2 2 2 2 2 2 2 1 1 1 1 1 1 2 2 2 2 3 3
5 2 2 2 2 2 2 3 3 3 2 2 2 2 2 1 1 1 2 2 2 2 2 2 2 2 2 2 3 3 2 2 1 2 2 2 2 2 1 2 2 2 3 3
3 1 3 2 3 3 3 4 3 3 2 2 2 2 2 2 2 2 2 2 2 1 2 2 2 2 2 2 2 3 2 2 2 2 2 2 2 2 2 2 2 2 3 4
4 3 3 3 3 3 4 3 3 2 2 2 1 1 2 2 3 3 2 2 1 1 2 2 2 1 1 2 3 3 2 2 2 2 2 2 2 2 2 3 2 2 1 2
4 4 4 4 4 4 4 4 4 3 2 2 2 2 2 2 2 2 2 2 2 2 2 2 2 1 2 2 2 2 2 3 3 2 2 2 2 2 2 2 2 2 2 2
6 7 6 5 5 5 5 5 4 3 3 2 2 2 2 2 2 2 2 2 2 2 1 1 1 1 1 2 2 2 2 3 4 3 3 3 2 3 3 3 3 3 3 2
7 7 6 6 5 5 5 5 4 3 3 2 2 2 2 3 3 2 2 2 2 2 1 0 0 1 2 2 2 1 1 2 2 3 2 2 2 2 2 3 3 3 2 3
6 5 4 4 4 3 4 3 3 3 2 2 2 3 3 3 3 2 2 2 2 2 2 1 1 2 2 2 1 1 2 2 2 2 2 3 3 3 3 3 3 3 2 2
5 4 4 4 3 3 3 3 3 3 2 2 2 3 3 3 3 2 2 2 1 1 1 1 2 2 1 1 1 1 2 2 3 3 2 3 3 3 3 3 3 2 2 2
5 4 4 4 3 3 3 3 3 3 2 2 3 3 3 3 2 2 2 2 1 1 1 2 1 1 1 1 2 2 2 2 3 3 3 3 3 3 3 3 3 3 2 3
4 4 4 4 3 3 3 2 2 2 2 2 3 3 3 2 2 2 2 1 1 1 1 1 1 2 2 3 2 2 2 2 2 2 2 2 2 2 3 3 3 3 2 2
3 3 3 3 3 3 2 2 2 2 2 2 2 2 2 2 1 1 2 1 0 1 1 1 3 4 5 3 2 2 2 2 2 2 2 2 2 3 3 3 3 2 2 2
3 3 3 3 3 3 2 2 1 1 1 1 1 2 1 1 1 1 1 1 1 1 1 2 4 5 5 3 2 2 2 2 2 2 3 2 2 3 3 3 3 2 2 3
2 2 3 3 3 2 2 1 1 1 1 1 1 1 1 1 1 1 1 1 1 1 1 3 5 5 3 3 2 2 2 3 3 3 3 3 3 3 3 2 2 2 2 3
2 1 1 2 1 1 1 1 1 1 1 1 1 1 1 0 0 0 0 1 1 2 2 2 2 3 2 2 2 2 3 3 3 3 3 3 3 3 2 2 3 3 3 3
1 1 0 0 0 1 1 1 1 1 1 1 1 1 0 0 0 0 0 1 1 1 1 1 2 2 2 2 2 3 3 3 3 3 3 3 3 3 3 3 3 2 2 2
Wind_Direction
274 277 272 269 263 255 258 267 277 294 298 299 97 76 77 85 89 114 139 157 161 164 161 163 170 169 162 163 172 177 175 193 218 206 173 186 185 183 176 175 204 205 187 159
275 266 266 269 266 257 256 264 273 284 295 29 52 47 52 67 73 93 189 190 181 174 178 188 182 176 167 167 168 166 172 182 183 174 152 160 170 182 171 170 198 210 181 168
276 274 271 264 260 258 263 274 281 284 305 50 45 30 28 28 22 346 78 217 195 187 185 194 198 182 175 177 166 176 184 169 151 148 155 178 184 158 205 179 192 207 198 177
271 272 261 262 264 268 265 275 296 306 9 34 33 62 50 25 357 11 42 220 225 226 213 201 203 183 176 173 175 185 186 167 167 169 162 168 179 197 218 205 203 208 204 186
261 266 264 250 270 313 293 300 322 330 351 9 50 94 52 50 34 14 360 335 265 255 246 212 197 180 168 175 181 183 194 186 178 177 169 170 191 204 213 211 204 200 196 187
257 263 267 297 34 8 306 271 19 5 7 13 20 291 339 35 23 11 19 30 26 16 26 56 162 154 156 178 189 196 198 202 184 176 174 179 198 208 199 197 194 194 205 195
252 256 261 8 39 355 257 349 15 12 12 360 324 338 29 45 31 25 28 32 32 47 45 59 140 145 153 175 197 194 191 205 182 172 177 175 184 201 198 191 191 209 208 201
240 249 245 81 100 257 340 4 13 10 1 357 14 19 46 44 38 30 22 26 26 44 38 33 68 129 162 201 218 180 183 202 187 178 187 169 175 202 201 189 196 212 218 211
235 245 46 89 354 13 5 343 355 3 355 350 351 11 36 33 30 30 11 27 30 44 59 44 66 119 185 276 302 199 191 194 183 180 174 168 178 195 199 189 195 210 214 218
253 233 219 224 315 355 355 339 351 355 342 333 323 340 354 4 323 279 275 3 9 323 206 203 206 188 183 164 223 210 246 203 192 191 182 188 192 194 191 198 205 213 219 224
262 258 253 219 92 2 354 341 336 337 333 322 312 307 301 288 281 278 281 262 210 224 232 224 224 217 173 171 197 219 233 227 226 211 194 201 205 251 221 212 207 210 222 215
256 257 270 267 271 307 300 308 314 319 317 312 299 283 276 271 281 286 287 272 242 224 227 230 222 219 199 186 203 213 224 219 206 201 193 175 189 312 313 274 237 215 225 230
271 311 313 319 324 307 290 294 295 293 288 294 303 301 298 299 292 284 284 276 262 228 225 231 223 217 214 200 207 215 220 212 196 198 203 204 210 216 269 307 294 261 246 243
264 275 278 290 297 298 294 294 294 293 291 294 303 314 318 316 308 291 283 285 278 240 233 223 217 209 199 199 213 218 214 211 203 205 214 225 228 224 216 225 259 275 261 245
248 246 257 272 272 282 285 284 282 275 274 283 299 312 318 313 302 297 296 285 269 240 237 222 211 205 196 212 220 222 209 197 206 216 219 226 228 230 232 233 240 255 270 259
241 249 253 257 256 259 264 265 261 262 265 275 279 285 294 300 300 304 305 287 257 245 235 217 214 205 199 219 229 224 209 209 210 218 229 230 225 229 236 238 244 241 236 224
228 233 237 242 246 252 258 261 259 257 263 270 275 279 287 291 287 286 291 285 264 255 240 218 215 195 208 233 236 228 203 200 212 225 232 237 235 233 232 234 242 244 244 228
235 237 238 244 247 248 254 259 260 258 256 264 267 258 252 255 261 268 279 290 287 280 276 290 39 241 238 243 238 231 217 205 208 219 225 236 247 247 243 243 242 245 255 243
235 234 239 244 245 241 248 258 269 269 259 249 251 256 259 265 275 281 279 273 269 273 294 348 319 275 258 253 251 234 238 230 227 230 226 235 244 247 248 246 243 240 237 238
233 233 239 245 241 239 243 245 254 261 256 251 256 262 264 265 263 265 267 265 259 269 312 333 293 270 264 256 285 264 253 243 232 230 230 229 237 243 245 252 250 244 238 235
231 234 241 247 243 238 239 235 237 242 249 245 244 253 265 275 271 263 272 283 304 351 343 304 295 298 276 294 277 268 257 251 244 236 232 234 237 241 244 250 251 247 246 248
233 234 240 246 244 243 240 236 232 232 240 243 247 256 260 268 275 276 267 261 301 340 327 310 322 325 314 301 266 261 259 259 256 247 240 238 241 248 254 259 257 254 252 249
242 242 243 248 246 246 241 229 225 225 231 233 236 249 249 251 241 246 266 288 87 303 306 302 314 316 307 284 263 261 264 267 266 263 262 261 260 259 261 262 259 257 257 260
245 238 240 248 245 238 229 226 226 231 235 243 245 253 254 258 262 257 249 249 285 286 293 295 300 299 295 281 274 269 264 265 266 267 269 269 265 262 263 262 260 255 252 255
257 237 228 232 232 226 214 210 215 218 220 230 234 249 255 246 244 257 243 224 263 290 291 290 292 289 282 280 284 285 281 274 275 275 268 268 267 263 259 255 253 256 256 254
278 259 237 230 231 213 205 203 212 224 224 236 237 228 252 265 244 242 239 225 251 277 284 288 286 281 283 290 291 292 290 287 284 276 269 268 268 266 261 256 256 253 255 254
276 277 254 213 206 205 203 209 225 238 235 241 253 251 259 282 276 263 275 274 277 271 280 296 302 298 298 298 294 292 293 294 290 284 279 276 274 269 262 255 251 250 249 247